Location: Hurstbourne Priors
(51.2000°N, 1.3667°W)
Time: 16:35:08
(UTC+00:00)

Vanguard 3 - Pass Details

Date: 28 April 2021
Orbit: 507 x 3262 km, 33.4° (Epoch: 16 May)

Event Time Altitude Azimuth Distance (km) Brightness Sun altitude
Rises 23:15:41 0° 232° (SW) 5,313 11.1 -23.5°
Enters shadow 23:18:41 - 225° (SW) 4,423 10.6 -23.6°
Reaches altitude 10° 23:21:12 10° 215° (SW) 3,704 - -23.7°
Maximum altitude 23:26:23 17° 180° (S) 2,623 - -23.9°
Drops below altitude 10° 23:30:18 10° 142° (SE) 2,651 - -24.0°
Sets 23:33:19 0° 121° (ESE) 3,258 - -24.0°
